Memphis, TN

11:05 PM CDT on July 24, 2017 (GMT -0500)
Memphis International

Weather History for KMEM - June, 2011

Change the Weather History Date:

Thursday, June 16, 2011

  Actual Average Record
Temperature  
Mean Temperature 83 °F 80 °F  
Max Temperature 95 °F 89 °F 98 °F (1952)
Min Temperature 70 °F 71 °F 51 °F (1917)
Degree Days  
Heating Degree Days 0 0  
Month to date heating degree days 0  
Since 1 June heating degree days 0  
Since 1 July heating degree days 2964  
Cooling Degree Days 18 15  
Month to date cooling degree days 319 212  
Year to date cooling degree days 695 533  
Since 1 June cooling degree days 319 212  
Growing Degree Days 32 (Base 50)    
Moisture  
Dew Point 67 °F    
Average Humidity 59    
Maximum Humidity 81    
Minimum Humidity 36    
Precipitation  
Precipitation 1.01 in 0.12 in 1.69 in (1982)
Month to date precipitation 2.99 2.03  
Year to date precipitation 31.67 26.31  
Snow  
Snow 0.00 in 0.00 in - ()
Month to date snowfall 0.0  
Since 1 June snowfall 0.0  
Since 1 July snowfall 3.8  
Snow Depth -    
Sea Level Pressure  
Sea Level Pressure 29.88 in    
Wind  
Wind Speed 8 mph (SSE)    
Max Wind Speed 45 mph    
Max Gust Speed 72 mph    
Visibility 9 miles    
Events Fog , Rain , Thunderstorm    
T = Trace of Precipitation, MM = Missing Value Source: NWS Daily Summary

Daily Weather History Graph

Daily Weather History Graph

Search for Another Location

Airport or City:

Trip Planner

Search our weather history database for the weather conditions in past years. The results will help you decide how hot, cold, wet, or windy it might be!

Date:

Astronomy

Jun. 16, 2011 Rise Set
Actual Time 5:45 AM CDT 8:15 PM CDT
Civil Twilight 5:15 AM CDT 8:45 PM CDT
Nautical Twilight 4:38 AM CDT 9:22 PM CDT
Astronomical Twilight 3:58 AM CDT 10:02 PM CDT
Moon 9:13 PM CDT (6/16) 6:27 AM CDT (6/16)
Length of Visible Light 15h 29m
Length of Day
14h 30m
Full, 99% of the Moon is Illuminated
Jun 16
Full
Jun 23
Last Quarter
Jul 1
New
Jul 8
First Quarter
Jul 15
Full

Hourly Weather History & Observations

Time (CDT) Temp. Heat Index Dew Point Humidity Pressure Visibility Wind Dir Wind Speed Gust Speed Precip Events Conditions
12:53 AM 79.3 °F - 61.5 °F 54% 29.87 in 10.0 mi NNE 3.5 mph - N/A   Partly Cloudy
1:53 AM 77.0 °F - 60.8 °F 57% 29.87 in 10.0 mi East 3.5 mph - N/A   Partly Cloudy
2:53 AM 75.7 °F - 62.8 °F 64% 29.87 in 10.0 mi Calm Calm - N/A   Clear
3:53 AM 75.4 °F - 63.0 °F 65% 29.87 in 10.0 mi Calm Calm - N/A   Partly Cloudy
4:53 AM 73.4 °F - 64.4 °F 73% 29.88 in 10.0 mi Calm Calm - N/A   Partly Cloudy
5:53 AM 71.6 °F - 66.2 °F 83% 29.89 in 10.0 mi Calm Calm - N/A   Scattered Clouds
6:53 AM 74.8 °F - 66.2 °F 74% 29.90 in 10.0 mi Calm Calm - N/A   Partly Cloudy
7:53 AM 79.2 °F - 64.0 °F 60% 29.91 in 10.0 mi ESE 6.9 mph - N/A   Mostly Cloudy
8:53 AM 82.4 °F 83.9 °F 64.4 °F 54% 29.90 in 10.0 mi SE 6.9 mph - N/A   Mostly Cloudy
9:53 AM 84.7 °F 87.1 °F 66.2 °F 54% 29.89 in 10.0 mi SSE 11.5 mph - N/A   Mostly Cloudy
10:53 AM 87.6 °F 94.3 °F 72.3 °F 60% 29.88 in 10.0 mi SSE 9.2 mph - N/A   Mostly Cloudy
11:53 AM 90.7 °F 103.8 °F 76.8 °F 64% 29.90 in 10.0 mi SSE 6.9 mph - N/A   Mostly Cloudy
12:53 PM 93.4 °F 110.8 °F 79.0 °F 63% 29.90 in 10.0 mi South 9.2 mph - N/A   Mostly Cloudy
1:54 PM 93.0 °F 100.7 °F 72.0 °F 50% 29.85 in 10.0 mi Calm Calm - N/A   Scattered Clouds
2:54 PM 93.0 °F 100.7 °F 72.0 °F 50% 29.84 in 10.0 mi SSW 9.2 mph - N/A   Mostly Cloudy
3:54 PM 95.0 °F 97.0 °F 64.0 °F 36% 29.83 in 10.0 mi South 9.2 mph - N/A   Mostly Cloudy
4:54 PM 93.9 °F 100.3 °F 70.0 °F 46% 29.81 in 10.0 mi South 8.1 mph - N/A   Scattered Clouds
5:33 PM 91.4 °F 94.0 °F 66.2 °F 43% 29.80 in 10.0 mi South 9.2 mph - N/A Thunderstorm Thunderstorm
5:54 PM 91.9 °F 95.4 °F 66.9 °F 44% 29.78 in 10.0 mi SE 4.6 mph - N/A Thunderstorm Thunderstorm
6:54 PM 82.9 °F 84.6 °F 64.9 °F 54% 29.82 in 3.0 mi South 41.4 mph 58.7 mph 0.00 in Rain , Thunderstorm Heavy Thunderstorms and Rain
7:00 PM 73.4 °F - 69.8 °F 88% 29.88 in 1.0 mi SSW 21.9 mph 72.5 mph 0.00 in Rain , Thunderstorm Heavy Thunderstorms and Rain
7:07 PM 71.6 °F - 68.0 °F 88% 29.92 in 0.5 mi SSW 28.8 mph 52.9 mph 0.15 in Fog , Rain , Thunderstorm Heavy Thunderstorms and Rain
7:10 PM 71.6 °F - 68.0 °F 88% 29.93 in 0.5 mi SSW 23.0 mph 52.9 mph 0.35 in Fog , Rain , Thunderstorm Heavy Thunderstorms and Rain
7:19 PM 71.6 °F - 69.8 °F 94% 29.91 in 2.0 mi South 19.6 mph 28.8 mph 0.83 in Rain , Thunderstorm Heavy Thunderstorms and Rain
7:27 PM 71.6 °F - 66.2 °F 83% 29.90 in 7.0 mi South 25.3 mph 31.1 mph 0.87 in Rain , Thunderstorm Light Thunderstorms and Rain
7:32 PM 71.6 °F - 66.2 °F 83% 29.91 in 10.0 mi South 18.4 mph 31.1 mph 0.87 in Rain , Thunderstorm Light Thunderstorms and Rain
7:54 PM 73.9 °F - 66.0 °F 76% 29.92 in 10.0 mi ENE 5.8 mph - 0.87 in Rain , Thunderstorm Light Thunderstorms and Rain
8:48 PM 71.6 °F - 68.0 °F 88% 29.94 in 10.0 mi NW 9.2 mph - 0.06 in Rain Light Rain
8:54 PM 71.6 °F - 68.0 °F 88% 29.93 in 10.0 mi North 4.6 mph - N/A Rain Light Rain
9:51 PM 71.6 °F - 68.0 °F 88% 29.91 in 10.0 mi ENE 10.4 mph - 0.05 in Rain , Thunderstorm Light Thunderstorms and Rain
9:54 PM 71.1 °F - 68.0 °F 90% 29.89 in 10.0 mi East 9.2 mph - 0.05 in Rain , Thunderstorm Thunderstorms and Rain
10:28 PM 69.8 °F - 66.2 °F 88% 29.87 in 10.0 mi SSE 13.8 mph - 0.03 in Rain Light Rain
10:54 PM 71.1 °F - 66.0 °F 84% 29.84 in 10.0 mi SE 12.7 mph - 0.03 in Rain Light Rain
11:54 PM 71.1 °F - 66.0 °F 84% 29.85 in 10.0 mi South 8.1 mph - 0.00 in   Overcast